GW1174 Weather Reports


Display with metric or nautical units.
time (UTC)temp
F
wind
direction
speed
MPH
gust
MPH
rain 1hr
in
rain 24hr
in
rain mn
in
humidity
%
barometer
mb
20260506013516 51 158 5.0 7.0 0.00 0.37 0.01 95 1006.2
20260506012516 51 158 4.0 6.0 0.00 0.37 0.01 95 1006.4
20260506011536 51 158 3.0 6.0 0.00 0.37 0.01 95 1006.3
20260506010536 51 158 4.0 7.0 0.00 0.37 0.01 95 1006.2
20260506005516 52 180 3.0 7.0 0.00 0.37 0.01 95 1006.4
20260506004536 52 158 3.0 6.0 0.00 0.37 0.01 95 1006.4
20260506003516 52 180 3.0 7.0 0.00 0.37 0.01 95 1006.5
20260506002516 52 180 2.0 8.0 0.00 0.37 0.01 95 1006.6
20260506001516 52 180 3.0 5.0 0.00 0.37 0.01 95 1006.8
20260506000517 52 158 4.0 6.0 0.01 0.37 0.01 95 1006.8
20260505235516 52 158 2.0 5.0 0.01 0.37 0.01 94 1007.0
20260505234516 52 158 3.0 6.0 0.01 0.37 0.01 94 1007.0
20260505233516 52 158 3.0 5.0 0.01 0.37 0.01 95 1007.1
20260505232515 52 203 4.0 6.0 0.01 0.37 0.01 94 1007.1
20260505231515 52 180 3.0 6.0 0.01 0.37 0.01 95 1007.1
20260505230515 53 180 2.0 4.0 0.00 0.36 0.00 94 1006.9
20260505225521 53 180 3.0 5.0 0.00 0.36 0.00 94 1006.8
20260505224515 53 158 4.0 6.0 0.00 0.36 0.00 94 1006.8
20260505223516 53 158 3.0 5.0 0.00 0.36 0.00 94 1006.8
20260505222515 53 158 3.0 6.0 0.00 0.36 0.00 94 1006.9
20260505221517 53 158 2.0 5.0 0.00 0.36 0.00 94 1007.0
20260505220517 53 203 2.0 3.0 0.00 0.36 0.00 94 1006.9
20260505215517 53 225 2.0 4.0 0.00 0.36 0.36 94 1006.7
20260505214517 53 0.0 2.0 0.00 0.36 0.36 94 1006.6
20260505213557 53 225 2.0 3.0 0.00 0.36 0.36 94 1006.9
20260505212516 53 225 2.0 3.0 0.00 0.36 0.36 94 1007.0
20260505211516 53 0.0 2.0 0.00 0.36 0.36 94 1006.8
20260505210517 53 0.0 1.0 0.00 0.36 0.36 94 1006.9
20260505205516 53 0.0 2.0 0.00 0.36 0.36 93 1006.8
20260505204516 53 0.0 2.0 0.00 0.36 0.36 93 1006.9
20260505203516 53 0.0 0.0 0.00 0.36 0.36 93 1006.6
20260505202516 53 0.0 2.0 0.00 0.36 0.36 93 1006.6
20260505201539 53 225 1.0 2.0 0.00 0.36 0.36 93 1006.3
20260505200536 53 225 2.0 3.0 0.00 0.36 0.36 93 1006.1
20260505195516 54 225 2.0 4.0 0.00 0.36 0.36 93 1005.9
20260505194536 54 203 1.0 3.0 0.00 0.36 0.36 93 1005.7
20260505193516 54 0.0 0.0 0.00 0.36 0.36 93 1005.5
20260505192516 54 0.0 3.0 0.00 0.36 0.36 93 1005.4
20260505191516 54 0.0 2.0 0.00 0.36 0.36 93 1005.4
20260505190516 54 293 1.0 5.0 0.00 0.36 0.36 93 1005.5
20260505185516 54 315 2.0 5.0 0.00 0.36 0.36 92 1005.3
20260505184516 54 338 1.0 7.0 0.00 0.36 0.36 92 1005.3
20260505183516 54 0.0 1.0 0.00 0.36 0.36 92 1005.3
20260505182516 55 293 1.0 8.0 0.12 0.36 0.36 92 1005.4
20260505181516 55 315 1.0 4.0 0.24 0.36 0.36 91 1005.3
20260505180536 55 0.0 3.0 0.35 0.36 0.36 91 1005.3
20260505175516 55 0.0 1.0 0.36 0.36 0.36 91 1005.2
20260505174516 55 315 2.0 4.0 0.36 0.36 0.36 90 1005.1
20260505173516 56 270 6.0 11.0 0.36 0.36 0.36 89 1005.1
20260505172516 56 270 7.0 13.0 0.24 0.24 0.24 88 1005.3
20260505171519 58 248 11.0 21.0 0.13 0.13 0.13 82 1005.2
20260505170516 62 225 11.0 21.0 0.02 0.02 0.02 73 1005.3
20260505165516 66 225 6.0 22.0 0.00 0.00 0.00 65 1004.7
20260505164516 67 0 1.0 3.0 0.00 0.00 0.00 64 1003.9
20260505163516 67 45 1.0 3.0 0.00 0.00 0.00 64 1004.0
20260505162516 68 0 1.0 4.0 0.00 0.00 0.00 65 1004.0
20260505161516 68 23 1.0 3.0 0.00 0.00 0.00 65 1004.0
20260505160516 68 23 1.0 4.0 0.00 0.00 0.00 65 1004.1
20260505152515 69 23 2.0 9.0 0.00 0.00 0.00 61 1004.3
20260505151536 70 45 2.0 7.0 0.00 0.00 0.00 60 1004.5
20260505150516 71 23 1.0 8.0 0.00 0.00 0.00 60 1004.4
20260505140518 71 0 1.0 5.0 0.00 0.00 0.00 57 1005.0
20260505124517 74 0.0 1.0 0.00 0.00 0.00 47 1005.7
20260505123517 75 270 2.0 7.0 0.00 0.00 0.00 46 1005.7
20260505122517 76 293 2.0 5.0 0.00 0.00 0.00 45 1005.9
20260505121518 76 293 2.0 6.0 0.00 0.00 0.00 48 1006.1
20260505120558 75 293 1.0 4.0 0.00 0.00 0.00 46 1006.1
20260505115517 75 158 2.0 7.0 0.00 0.00 0.00 41 1006.2
20260505114517 77 158 2.0 7.0 0.00 0.00 0.00 41 1006.4
20260505113517 76 293 2.0 6.0 0.00 0.00 0.00 39 1006.5
20260505112517 74 270 1.0 2.0 0.00 0.00 0.00 43 1006.4
20260505111517 75 270 2.0 6.0 0.00 0.00 0.00 46 1006.5
20260505110517 73 293 1.0 4.0 0.00 0.00 0.00 48 1006.6
20260505101517 73 0.0 3.0 0.00 0.00 0.00 52 1007.0
20260505100537 73 315 2.0 6.0 0.00 0.00 0.00 52 1007.2
20260505095540 73 248 1.0 3.0 0.00 0.00 0.00 55 1007.2
20260505094517 72 293 1.0 3.0 0.00 0.00 0.00 57 1007.3
20260505093517 72 0.0 4.0 0.00 0.00 0.00 60 1007.4
20260505092517 72 45 1.0 3.0 0.00 0.00 0.00 60 1007.6
20260505091517 71 0.0 4.0 0.00 0.00 0.00 61 1007.6
20260505090517 71 0.0 3.0 0.00 0.00 0.00 60 1007.8
20260505085517 70 0 1.0 3.0 0.00 0.00 0.00 63 1007.9
20260505084517 69 0.0 1.0 0.00 0.00 0.00 64 1008.0
20260505083517 68 45 1.0 3.0 0.00 0.00 0.00 66 1008.0
20260505082517 68 293 1.0 3.0 0.00 0.00 0.00 67 1008.0
20260505081557 67 0.0 2.0 0.00 0.00 0.00 69 1008.1
20260505080537 66 0.0 1.0 0.00 0.00 0.00 71 1008.2
20260505075537 65 0.0 1.0 0.00 0.00 0.00 73 1008.1
20260505074516 65 0.0 3.0 0.00 0.00 0.00 72 1008.2
20260505073516 65 0.0 1.0 0.00 0.00 0.00 72 1008.3
20260505072520 65 0.0 0.0 0.00 0.00 0.00 71 1008.3
20260505071557 65 0.0 1.0 0.00 0.00 0.00 71 1008.4
20260505070517 65 0.0 2.0 0.00 0.00 0.00 72 1008.4
20260505065516 64 0.0 2.0 0.00 0.00 0.00 75 1008.4
20260505064517 62 0.0 0.0 0.00 0.00 0.00 76 1008.4
20260505063517 62 0.0 2.0 0.00 0.00 0.00 76 1008.5
20260505062516 62 0.0 3.0 0.00 0.00 0.00 77 1008.7
20260505061516 61 0.0 1.0 0.00 0.00 0.00 79 1008.5
20260505060536 60 0.0 1.0 0.00 0.00 0.00 80 1008.5
20260505055517 59 0.0 2.0 0.00 0.00 0.00 81 1008.4
20260505054516 58 0.0 1.0 0.00 0.00 0.00 82 1008.7
20260505053556 57 0.0 4.0 0.00 0.00 0.00 83 1008.5
20260505052516 57 0.0 2.0 0.00 0.00 0.00 83 1008.6
20260505051516 56 0.0 1.0 0.00 0.00 0.00 84 1008.5
20260505050516 56 0.0 0.0 0.00 0.00 0.00 84 1008.5
20260505041516 56 0 1.0 5.0 0.00 0.00 0.00 83 1008.5
20260505040516 56 23 1.0 5.0 0.00 0.00 0.00 82 1008.5
20260505035516 56 0.0 1.0 0.00 0.00 0.00 81 1008.6
20260505034536 56 0.0 2.0 0.00 0.00 0.00 81 1008.7
20260505033516 57 0.0 1.0 0.00 0.00 0.00 81 1008.9
20260505032516 57 0 1.0 4.0 0.00 0.00 0.00 81 1008.9
20260505031516 56 23 2.0 5.0 0.00 0.00 0.00 82 1009.1
20260505030516 56 0.0 2.0 0.00 0.00 0.00 82 1009.0
20260505025516 56 0.0 2.0 0.00 0.00 0.00 82 1009.2
20260505024516 56 0.0 1.0 0.00 0.00 0.00 82 1009.4
20260505023516 56 0.0 2.0 0.00 0.00 0.00 81 1009.6
20260505022516 57 0.0 3.0 0.00 0.00 0.00 81 1009.7
20260505021516 57 0.0 0.0 0.00 0.00 0.00 80 1010.0
20260505020536 57 0.0 0.0 0.00 0.00 0.00 79 1009.9
20260505015536 58 293 3.0 8.0 0.00 0.00 0.00 79 1010.0
20260505014516 58 0.0 2.0 0.00 0.00 0.00 80 1009.9